Location: Maccacari
(45.1333°N, 11.1333°E)
Time: 23:15:35
(UTC+00:00)

NOSS 3-2 (C) - Pass Details

Date: 18 September 2020
Orbit: 795 x 1418 km, 63.4° (Epoch: 02 October)

Event Time Altitude Azimuth Distance (km) Brightness Sun altitude
Rises 20:35:24 0° 319° (NW) 4,015 7.8 -32.3°
Reaches altitude 10° 20:38:02 10° 315° (NW) 3,134 7.0 -32.6°
Maximum altitude 20:45:29 56° 240° (WSW) 1,526 4.4 -33.6°
Enters shadow 20:46:12 55° 221° (SW) 1,560 4.4 -33.7°
